Weather in Pavda

Russia / Sverdlovsk Oblast     59°15′08″N   59°30′13″E
temp.,
°C
wind,
m/s
gust,
m/s
humid.,
%
clouds,
%
prec.,
mm/h
press.,
hPa
HPBL,
m
16 june, wed
wed1623:00+16w22805 0.0 101319
02:00+14w218995 0.0 101314
05:00+15w1185100 0.0 101422
08:00+22sw125984 0.0 1013348
11:00+26wsw264477 0.3 10122157
14:00+26wsw4840100 0.0 10112408
17:00+23wsw23565 0.0 100956
20:00+24wsw275536 0.0 1007333
17 june, thu
thu1723:00+17sw227132 0.1 100625
02:00+16w2581100 0.1 100598
05:00+15sw2495100 0.6 1004102
08:00+19wnw4776100 0.3 1003614
11:00+20nw236859 1.6 1005724
14:00+20ne136235 1.9 10051093
17:00+19nne254998 2.4 1006917
20:00+17nnw474133 0.0 10091561
18 june, fri
fri1823:00+12n375431 0.0 1012215
02:00+8nnw24695 0.0 101481
05:00+7n3106514 0.0 1017355
08:00+12nne464326 0.0 10181060
11:00+16nne363141 0.0 10182530
14:00+19n2622100 0.0 10173199
17:00+19nw5625100 0.0 10172855
20:00+15nw5840100 0.0 10171537
19 june, sat
sat1923:00+11wnw376090 0.0 1018241
02:00+11w2470100 0.0 1018267
05:00+10wnw368097 0.0 1018391
08:00+13wnw2468100 0.0 1018653
11:00+18nw1448100 0.0 10171417
14:00+20nnw253970 0.0 10151960
17:00+17wnw366093 0.0 1016436
20:00+16w2274100 0.1 101566
20 june, sun
sun2023:00+14wsw2391100 0.3 101579
02:00+14wsw21088100 0.0 1013380
05:00+16wnw258567 0.0 1013159
08:00+19wnw3573100 0.0 1014552
11:00+23nw59455 0.0 10151533
14:00+25nnw58265 0.0 10151941
17:00+25nnw46240 0.0 10161924
20:00+21nnw12450 0.0 101734